EJA220 KVNY-KSGR

Flight info

Callsign EJA220
Flight time N/A
Altitude 39000
Route HARYS5 BLH J169 TFD J50 ELP Q4 FUSCO DCT BGOHH SNDAY1
Aircraft CL60/M-SBDE1E2E3FGHIJ1J4J5J7M3RWXYZ/LB1V1D1

Departure

Time 2026-04-21 20:04
Airport Van Nuys Airport (KVNY)

Arrival

Time N/A
Airport Sugar Land Regional Airport (KSGR)
Time Latitude Longitude Altitude Speed Heading
2026-04-21 19:46 34.20876 -118.48744 807 ft 0 kts 179°
2026-04-21 20:00 34.20864 -118.48750 808 ft 5 kts 226°
2026-04-21 20:01 34.20861 -118.48808 807 ft 8 kts 293°
2026-04-21 20:01 34.20936 -118.48828 807 ft 12 kts 355°
2026-04-21 20:01 34.21024 -118.48838 808 ft 14 kts 356°
2026-04-21 20:01 34.21134 -118.48847 808 ft 17 kts 356°
2026-04-21 20:02 34.21219 -118.48855 808 ft 19 kts 356°
2026-04-21 20:02 34.21415 -118.48875 808 ft 22 kts 356°
2026-04-21 20:02 34.21581 -118.48898 808 ft 25 kts 347°
2026-04-21 20:02 34.21713 -118.48931 807 ft 17 kts 354°
2026-04-21 20:03 34.21837 -118.48945 808 ft 17 kts 355°
2026-04-21 20:03 34.21891 -118.48998 808 ft 12 kts 272°
2026-04-21 20:03 34.21887 -118.49086 808 ft 10 kts 266°
2026-04-21 20:03 34.21863 -118.49122 808 ft 6 kts 175°
2026-04-21 20:04 34.21608 -118.49099 808 ft 82 kts 175°
2026-04-21 20:04 34.20727 -118.49017 859 ft 161 kts 175°
2026-04-21 20:04 34.19526 -118.48898 1576 ft 187 kts 174°
2026-04-21 20:04 34.18145 -118.48583 2379 ft 219 kts 152°
2026-04-21 20:05 34.17117 -118.47263 3721 ft 225 kts 124°
2026-04-21 20:05 34.16341 -118.45657 4984 ft 231 kts 124°
2026-04-21 20:05 34.15529 -118.43994 6155 ft 240 kts 125°
2026-04-21 20:05 34.14625 -118.42165 6952 ft 268 kts 126°
2026-04-21 20:06 34.13643 -118.40176 8083 ft 281 kts 127°
2026-04-21 20:06 34.12637 -118.38139 9298 ft 289 kts 127°
2026-04-21 20:06 34.11851 -118.35905 10502 ft 306 kts 107°
2026-04-21 20:06 34.11909 -118.33299 11574 ft 327 kts 79°
2026-04-21 20:07 34.12958 -118.30805 12574 ft 343 kts 50°
2026-04-21 20:07 34.14801 -118.29036 13576 ft 346 kts 22°
2026-04-21 20:07 34.16332 -118.28420 14240 ft 340 kts
2026-04-21 20:07 34.19305 -118.28593 15343 ft 333 kts 342°
2026-04-21 20:08 34.21457 -118.29202 16120 ft 329 kts 330°
2026-04-21 20:08 34.23346 -118.30595 16922 ft 313 kts 307°
2026-04-21 20:08 34.24597 -118.32635 17727 ft 297 kts 287°
2026-04-21 20:08 34.25515 -118.34886 18448 ft 308 kts 295°
2026-04-21 20:09 34.26952 -118.36918 18941 ft 327 kts 304°
2026-04-21 20:09 34.28638 -118.38851 19087 ft 334 kts 312°
2026-04-21 20:09 34.30621 -118.40360 19098 ft 346 kts 325°
2026-04-21 20:09 34.32963 -118.41298 19096 ft 359 kts 340°
2026-04-21 20:10 34.35518 -118.41486 19090 ft 372 kts 357°